Terug naar catalogus

STARLINK-33811

ActiefCommunicatieVLEO
NORAD 63504·PAYLOAD·🇺🇸 United States

Gelanceerd Apr 7, 2025 vanaf Vandenberg Space Force Base

Loading…

Volgende Passages (komende 24 uur)

TLE

VersSource: CelesTrak SupGP

Epoch: Sep 15, 2026, 03:31 UTC

1 63504C 25071M   26258.14701389  .00059207  00000+0  17487-2 0  2588
2 63504  53.1575 338.4128 0001287 100.3268  52.2384 15.34372305    11

Volg STARLINK-33811 in realtime met AllMySat

Download on the App Store